Regional Weather Roundup
Issued by NWS Nashville, TN

Home | Current Version | Previous Version | Text Only | Print | Product List | Glossary On
Versions: 1 2 3 4 5 6 7 8 9 10 11 12 13 14 15 16 17 18 19 20 21 22 23 24 25 26 27 28 29 30 31 32 33 34 35 36 37 38 39 40 41 42 43 44 45 46 47 48 49 50
000
ASUS44 KOHX 292010
RWROHX
MIDDLE TENNESSEE HOURLY WEATHER ROUNDUP
NATIONAL WEATHER SERVICE NASHVILLE TN
300 PM CDT SAT AUG 29 2015

NOTE: "FAIR" INDICATES FEW OR NO CLOUDS BELOW 12,000 FEET WITH
NO SIGNIFICANT WEATHER AND/OR OBSTRUCTIONS TO VISIBILITY.

* THESE REPORTS ARE NOT UNDER NWS QUALITY CONTROL AND MAY NOT
  REPORT WEATHER SUCH AS PRECIPITATION AND FOG.


TNZ005>011-023>034-057-059-062>066-078-080-292100
...NORTHERN MIDDLE TENNESSEE...

CITY           SKY/WX    TMP DP  RH WIND       PRES   REMARKS
CLARKSVILLE    LGT RAIN  89  62  40 SW7       30.05F
CROSSVILLE     MOSUNNY   80  65  59 S7        30.17F
DICKSON        SUNNY     88  66  48 SE3       30.07F HX  90
NASHVILLE      LGT RAIN  78  68  71 S12       30.08F
SMYRNA         LGT RAIN  75  73  93 SW6       30.10S
$$
TNZ056-058-060-061-075>077-079-093>097-292100
...SOUTHERN MIDDLE TENNESSEE...

CITY           SKY/WX    TMP DP  RH WIND       PRES   REMARKS
COLUMBIA       MOSUNNY   75  73  94 S9        30.08F
LEWISBURG      PTSUNNY   70  67  90 S7        30.11
MCMINNVILLE    SUNNY     88  73  62 VRB5      30.11F HX  96
SHELBYVILLE    PTSUNNY   73  70  88 CALM      30.13S
TULLAHOMA      PTSUNNY   75  66  73 W16       30.14R
WINCHESTER     MOSUNNY   86  68  54 VRB7      30.10F
$$


...KEY TO REMARKS...
VSB - VISIBILITY IN MILES
WCI - WIND CHILL INDEX
HX  - HEAT INDEX



USA.gov is the U.S. government's official web portal to all federal, state and local government web resources and services.